Simultaneous Nadir Overpasses (SNOs) Predictions

Prediction of SNOs between AQUA and NPP Satellite Orbit:

Table of predicted SNOs for the next 14.0 days since TLE Epoch: 2/22/2025
Index Date (AQUA) Time (AQUA) Lat,Lon (AQUA) SZA (AQUA ) Date (NPP) Time (NPP) Lat,Lon (NPP) SZA (NPP ) Distance(km) Time Diff (sec)
1 02/23/2025 00:30:40 -81.30, -76.98 82.90 02/23/2025 00:30:28 -81.30, -77.14 82.87 2.70 12
2 02/23/2025 01:19:58 81.30, 90.87 97.07 02/23/2025 01:21:11 81.30, 90.97 97.01 1.85 73
3 02/25/2025 10:52:05 81.30, -52.30 96.20 02/25/2025 10:52:06 81.30, -52.20 96.18 1.67 1
4 02/27/2025 20:24:10 81.29, 164.72 95.28 02/27/2025 20:23:01 81.30, 164.56 95.35 2.78 69
5 02/27/2025 21:13:29 -81.31, -27.37 84.76 02/27/2025 21:13:44 -81.30, -27.42 84.77 1.16 15
6 03/02/2025 06:45:33 -81.30,-170.52 85.67 03/02/2025 06:44:38 -81.30,-170.33 85.66 3.28 55
7 03/02/2025 07:34:51 81.30, -2.79 94.32 03/02/2025 07:35:22 81.30, -2.62 94.27 2.87 31
8 03/04/2025 17:06:53 81.30,-145.78 93.39 03/04/2025 17:06:16 81.30,-145.60 93.38 3.00 37
9 03/04/2025 17:56:13 -81.29, 21.77 86.62 03/04/2025 17:57:01 -81.30, 21.64 86.63 2.28 48
10 03/07/2025 03:28:12 -81.30,-121.01 87.59 03/07/2025 03:27:53 -81.30,-121.01 87.58 0.21 19



Historial Predications of SNOs between AQUA and NPP
